Regional Weather Roundup
Issued by NWS

Home | Current Version | Previous Version | Text Only | Print | Product List | Glossary On
Versions: 1 2 3 4 5 6 7 8 9 10 11 12 13 14 15 16 17 18 19 20 21 22 23 24 25 26 27 28 29 30 31 32 33 34 35 36 37 38 39 40 41 42 43 44 45 46 47 48 49 50
000
ASUS46 KPQR 162110
RWROR

OREGON REGIONAL WEATHER ROUNDUP
NATIONAL WEATHER SERVICE PORTLAND OR
100 PM PST MON JAN 16 2017

NOTE: "FAIR" INDICATES FEW OR NO CLOUDS BELOW 12,000 FEET WITH
NO SIGNIFICANT WEATHER AND/OR OBSTRUCTIONS TO VISIBILITY.

ORZ001>013-162200-
NORTHWEST OREGON


CITY           SKY/WX    TMP DP  RH WIND       PRES   REMARKS
ASTORIA        PTSUNNY   45  28  51 NE6       30.07F
NEWPORT        MOSUNNY   50  32  50 E10       30.09F
PORTLAND       PTSUNNY   28  15  58 SE16      30.20F WCI  16
VANCOUVER WA   MOSUNNY   29  17  61 SE8       30.21F WCI  21
SCAPPOOSE      MOSUNNY   29  18  63 S6        30.20F WCI  23
HILLSBORO      MOSUNNY   30  21  69 NW7       30.19F WCI  23
AURORA         MOSUNNY   35  20  54 CALM      30.19F
MCMINNVILLE    MOSUNNY   33  21  61 SE5       30.20F WCI  29
SALEM          SUNNY     37  20  50 N5        30.17F WCI  33
CORVALLIS        N/A     36  23  60 CALM      30.19F
EUGENE         PTSUNNY   36  27  69 NW5       30.17F WCI  32
$$

ORZ021-028-162200-
SOUTHWEST OREGON


CITY           SKY/WX    TMP DP  RH WIND       PRES   REMARKS
NORTH BEND     MOSUNNY   55  39  54 SE9       30.10F
BROOKINGS      SUNNY     59  37  44 S3        30.11F
ROSEBURG       SUNNY     44  39  82 SW3       30.14F
SEXTON SUMMIT  SUNNY     48  15  26 SE5       30.13F
MEDFORD        SUNNY     42  34  73 VRB3      30.18F
$$

ORZ014>016-041-162200-
COLUMBIA GORGE


CITY           SKY/WX    TMP DP  RH WIND       PRES   REMARKS
TROUTDALE      SUNNY     26  15  63 E35G44    30.19F WCI   9
THE DALLES     CLOUDY    18  10  71 E3        30.52F
$$

ORZ029>031-041-044-049-050-061>064-502-503-505>511-162200-
EASTERN OREGON


CITY           SKY/WX    TMP DP  RH WIND       PRES   REMARKS
REDMOND        SUNNY     19   9  65 CALM      30.21F
BEND           SUNNY     32  18  55 E5        30.19F WCI  27
PRINEVILLE     SUNNY     32  19  59 SE6       30.21F WCI  26
KLAMATH FALLS  SUNNY     31  21  66 E8        30.22F WCI  23
LAKEVIEW       SUNNY     23  16  74 CALM      30.25F
HERMISTON      CLOUDY    15   8  73 CALM      30.48F HAZE
PENDLETON      CLOUDY    10   7  87 S5        30.39F WCI   2
JOHN DAY       SUNNY     31  21  66 E7        30.21F WCI  24
MEACHAM        SUNNY     26  11  52 CALM      30.19F
LA GRANDE      SUNNY     10   9  92 N10       30.32F WCI  -3
BAKER CITY     SUNNY      5  -1  76 CALM      30.36F
BURNS          SUNNY      9   4  80 CALM      30.30F
ROME             N/A     19  12  74 CALM      30.30F
ONTARIO        CLOUDY     5   0  79 CALM      30.55F HAZE
$$



USA.gov is the U.S. government's official web portal to all federal, state and local government web resources and services.